Probability
94 74 48 10 3 0 0 0 0 0 0 0 0 0 0 0 0 0 0 3 10 39 52 77 77 81 87 94 90 90 94 97 97 90 90 94 90 84 84 77 84 87 84 84 77 81 77 81 71
71 52 19 3 0 0 0 0 0 0 0 0 0 0 0 0 0 0 3 10 39 39 48 55 74 87 87 84 77 84 84 94 97 97 97 94 94 87 84 81 77 77 77 84 71 68 81 77 74
68 48 3 0 0 0 0 0 0 0 0 0 0 0 0 0 3 3 3 19 35 32 39 45 65 65 61 71 68 71 81 90 94 94 94 94 100 94 90 94 84 77 74 71 74 71 71 74 74
58 6 0 0 0 0 0 0 0 0 0 0 0 0 0 0 3 10 10 19 26 29 29 29 58 58 61 55 48 58 61 65 71 77 84 87 90 94 100 97 97 90 81 77 71 71 68 61 74
10 0 0 0 0 0 0 0 0 0 0 0 0 0 0 0 3 6 10 10 6 10 19 19 42 42 35 39 39 45 42 42 52 52 61 68 81 87 87 97 94 94 94 90 81 84 71 61 71
0 0 0 0 0 0 0 0 0 0 0 0 0 0 0 0 3 0 0 3 3 6 10 16 32 32 23 19 19 19 23 29 32 45 48 55 61 61 77 84 90 97 97 94 97 100 84 74 77
0 0 0 0 0 0 0 0 0 0 0 0 0 0 0 0 0 0 0 0 0 3 6 3 3 3 16 26 19 23 19 19 29 32 39 42 42 48 52 58 65 81 94 97 94 97 90 84 81
0 0 0 0 0 0 0 0 0 0 0 0 0 0 0 0 0 0 0 0 0 0 3 0 0 3 0 0 10 13 19 16 23 23 23 29 29 19 29 39 45 61 77 71 84 90 81 77 77
0 0 0 0 0 0 0 0 0 0 0 0 0 0 0 0 0 0 0 0 0 0 0 0 0 0 0 0 0 0 0 0 6 3 13 10 0 0 0 13 35 48 58 68 68 65 71 68 74
0 0 0 0 0 0 0 0 0 0 0 0 0 0 0 0 0 0 0 0 0 0 0 0 0 0 0 0 0 0 0 0 0 0 0 0 0 0 10 13 13 26 39 35 42 52 58 55 42
0 0 0 0 0 0 0 0 0 0 0 0 0 0 0 0 0 0 0 0 0 0 0 0 0 0 0 0 0 0 0 0 0 0 0 0 0 0 0 3 3 6 10 10 13 23 26 29 29
0 0 0 0 0 0 0 0 0 0 0 0 0 0 0 0 0 0 0 0 0 0 0 0 0 0 0 0 0 0 0 0 0 0 0 0 0 0 0 0 0 3 3 3 6 13 16 13 13
0 0 0 0 0 0 0 0 0 0 0 0 0 0 0 0 0 0 0 0 0 0 0 0 0 0 0 0 0 0 0 0 0 0 0 0 0 0 0 0 0 0 0 0 0 6 6 6 10
3 3 3 3 0 0 0 0 0 0 0 0 0 0 0 0 0 0 0 0 0 0 0 0 0 0 0 0 0 0 0 0 0 0 0 0 0 0 0 0 0 0 0 0 0 0 3 0 0
3 0 0 0 0 0 0 0 0 0 0 0 0 0 0 0 0 0 0 0 0 0 0 0 0 0 0 0 0 0 0 0 0 0 0 0 0 0 0 0 0 0 0 0 0 0 0 0 0
0 0 0 0 3 0 0 0 0 0 0 0 0 0 0 0 0 0 0 0 0 0 0 0 0 0 0 0 0 0 0 0 0 0 0 0 0 0 0 0 0 0 0 0 0 0 0 0 0
0 0 0 0 0 0 0 0 0 0 0 0 0 0 0 0 0 0 0 0 0 0 0 0 0 0 0 0 0 0 0 0 0 0 0 0 0 0 0 0 0 0 0 0 0 0 0 0 0
0 0 0 0 0 0 0 0 0 0 0 0 0 0 0 0 0 0 0 0 0 0 0 0 0 0 0 0 0 0 0 0 0 0 0 0 0 0 0 0 0 0 0 0 0 0 0 0 0
0 0 0 0 0 3 0 0 0 0 0 0 0 0 0 0 0 0 0 0 0 0 0 0 0 0 0 0 0 0 0 0 0 0 0 0 0 0 0 0 0 0 0 0 0 0 0 0 0
0 0 0 0 0 0 0 0 0 0 0 0 0 0 0 0 0 0 0 0 0 0 0 0 0 0 0 0 0 0 0 0 0 0 0 0 0 0 0 0 0 0 0 0 0 0 0 0 0
0 0 0 0 0 0 0 0 0 0 0 0 0 0 0 0 0 0 0 0 0 0 0 0 0 0 0 0 0 0 0 0 0 0 0 0 0 0 0 0 0 0 0 0 0 0 0 0 0
0 0 0 0 0 0 0 0 0 0 0 0 0 0 0 0 0 0 0 0 0 0 0 0 0 0 0 0 0 0 0 0 0 0 0 0 0 0 0 0 0 0 0 0 0 0 0 0 0
0 0 0 0 0 0 0 0 0 0 0 0 0 0 0 0 0 0 0 0 0 0 0 0 0 0 0 0 0 0 0 0 0 0 0 0 0 0 0 0 0 0 0 0 0 0 0 0 0
0 0 0 0 0 0 0 0 0 0 0 0 0 0 0 0 0 0 0 0 0 0 0 0 0 0 0 0 0 0 0 0 0 0 0 0 0 0 0 0 0 0 0 0 0 0 0 0 0
0 0 0 0 0 0 0 0 0 0 0 0 0 0 0 0 0 0 0 0 0 0 0 0 0 0 0 0 0 0 0 0 0 0 0 0 0 0 0 0 0 0 0 0 0 0 0 0 0
0 0 0 0 0 0 0 0 0 0 0 0 0 0 0 0 0 0 0 0 0 0 0 0 0 0 0 0 0 0 0 0 0 0 0 0 0 0 0 0 0 0 0 0 0 0 0 0 0
0 0 0 0 0 0 0 0 0 0 0 0 0 0 0 0 0 0 0 0 0 0 0 0 0 0 0 0 0 0 0 0 0 0 0 0 0 0 0 0 0 0 0 0 0 0 0 0 0
0 0 0 0 0 0 0 0 0 0 0 0 0 0 0 0 0 0 0 0 0 0 0 0 0 0 0 0 0 0 0 0 0 0 0 0 0 0 0 0 0 0 0 0 0 0 0 0 0
0 0 0 0 0 0 0 0 0 0 0 0 0 0 0 0 0 0 0 0 0 0 0 0 0 0 0 0 0 0 0 0 0 0 0 0 0 0 0 0 0 0 0 0 0 0 0 0 0
0 0 0 0 0 0 0 0 0 0 0 0 0 0 0 0 0 0 0 0 0 0 0 0 0 0 0 0 0 0 0 0 0 0 0 0 0 0 0 0 0 0 0 0 0 0 0 0 0
Height
5885 5884 5884 5884 5884 5883 5883 5883 5883 5883 5883 5882 5882 5881 5880 5880 5880 5881 5878 5875 5874 5873 5872 5870 5869 5868 5867 5866 5865 5864 5863 5862 5862 5862 5862 5862 5863 5863 5863 5864 5864 5865 5866 5866 5867 5868 5868 5869 5870
5884 5884 5883 5882 5882 5882 5883 5883 5882 5882 5882 5881 5880 5880 5879 5877 5876 5875 5874 5872 5871 5870 5869 5867 5866 5865 5864 5863 5862 5861 5859 5859 5858 5858 5859 5859 5859 5860 5860 5861 5861 5862 5863 5863 5864 5865 5866 5866 5867
5883 5882 5882 5881 5881 5882 5882 5882 5881 5881 5881 5880 5879 5878 5877 5876 5874 5872 5871 5869 5868 5867 5865 5864 5863 5861 5860 5858 5857 5857 5856 5855 5855 5855 5855 5855 5855 5856 5857 5857 5858 5859 5860 5861 5861 5862 5863 5864 5864
5883 5882 5881 5881 5881 5881 5881 5881 5880 5880 5879 5879 5878 5877 5875 5873 5872 5870 5868 5866 5864 5863 5861 5859 5858 5857 5855 5854 5852 5852 5851 5851 5850 5850 5850 5850 5851 5852 5852 5853 5854 5855 5856 5857 5858 5859 5860 5861 5862
5881 5881 5880 5880 5880 5880 5880 5879 5879 5878 5878 5877 5876 5874 5872 5871 5868 5866 5865 5863 5861 5859 5857 5855 5853 5852 5850 5849 5847 5847 5846 5846 5845 5845 5845 5845 5846 5847 5848 5849 5850 5851 5852 5853 5855 5856 5857 5858 5859
5880 5880 5880 5879 5879 5878 5878 5877 5877 5876 5875 5874 5873 5871 5869 5868 5865 5863 5861 5859 5857 5854 5852 5850 5848 5846 5844 5843 5842 5841 5840 5840 5839 5839 5839 5840 5840 5841 5843 5844 5845 5846 5847 5849 5850 5852 5854 5855 5856
5878 5877 5877 5878 5877 5877 5876 5875 5875 5874 5873 5872 5870 5869 5866 5864 5862 5859 5857 5855 5852 5850 5848 5845 5843 5841 5839 5837 5836 5834 5833 5833 5832 5832 5833 5833 5834 5836 5837 5838 5840 5841 5842 5844 5846 5848 5850 5851 5853
5874 5876 5875 5875 5875 5875 5874 5873 5872 5871 5870 5869 5868 5866 5864 5861 5858 5856 5854 5851 5849 5846 5844 5841 5838 5836 5834 5832 5830 5829 5827 5826 5826 5826 5826 5827 5827 5829 5830 5832 5834 5835 5837 5839 5841 5843 5845 5847 5849
5872 5874 5872 5872 5872 5872 5872 5871 5870 5869 5868 5866 5864 5863 5861 5858 5855 5853 5851 5848 5845 5843 5840 5837 5834 5832 5829 5827 5825 5823 5821 5820 5819 5819 5819 5819 5821 5822 5824 5825 5827 5829 5831 5833 5835 5837 5840 5842 5844
5869 5870 5870 5870 5870 5869 5869 5868 5867 5866 5865 5864 5862 5860 5857 5855 5853 5850 5848 5845 5843 5840 5837 5834 5831 5828 5825 5822 5820 5818 5816 5815 5814 5813 5813 5813 5814 5815 5817 5818 5820 5822 5825 5827 5830 5832 5834 5837 5840
5866 5867 5867 5867 5867 5867 5866 5866 5865 5864 5862 5861 5859 5857 5855 5852 5850 5848 5845 5843 5840 5837 5834 5831 5828 5825 5822 5819 5816 5814 5811 5810 5808 5807 5807 5807 5807 5808 5810 5811 5813 5816 5819 5822 5824 5827 5829 5832 5835
5863 5863 5864 5865 5865 5865 5864 5863 5862 5861 5860 5858 5856 5854 5852 5850 5848 5845 5843 5841 5838 5835 5831 5828 5825 5822 5819 5816 5813 5810 5807 5805 5803 5802 5801 5801 5801 5802 5803 5805 5807 5810 5813 5816 5819 5822 5824 5827 5830
5860 5860 5861 5862 5863 5862 5862 5861 5860 5859 5857 5855 5853 5851 5850 5848 5846 5843 5841 5839 5836 5833 5830 5826 5823 5820 5816 5813 5809 5806 5803 5800 5798 5796 5795 5795 5795 5796 5797 5799 5801 5804 5806 5810 5813 5816 5819 5822 5825
5857 5858 5859 5860 5860 5860 5860 5859 5858 5857 5855 5853 5851 5850 5848 5846 5844 5841 5839 5837 5834 5831 5828 5825 5822 5818 5814 5811 5807 5804 5800 5797 5794 5792 5791 5790 5790 5791 5792 5793 5795 5798 5800 5803 5807 5810 5814 5817 5820
5854 5856 5857 5858 5858 5857 5857 5856 5855 5854 5853 5851 5850 5848 5846 5844 5842 5840 5838 5836 5833 5830 5827 5824 5821 5817 5813 5809 5805 5802 5798 5795 5792 5789 5787 5787 5786 5786 5787 5788 5790 5792 5795 5798 5801 5805 5808 5812 5815
5852 5854 5855 5855 5855 5855 5856 5854 5853 5852 5850 5849 5848 5846 5845 5843 5841 5839 5837 5835 5833 5830 5827 5824 5820 5816 5812 5809 5805 5801 5797 5793 5790 5787 5785 5784 5783 5783 5783 5784 5785 5787 5790 5793 5796 5799 5803 5807 5810
5849 5851 5852 5853 5852 5852 5852 5851 5850 5850 5848 5847 5846 5845 5843 5841 5840 5838 5837 5835 5832 5830 5827 5823 5820 5816 5812 5808 5805 5801 5797 5793 5789 5786 5783 5781 5780 5780 5780 5781 5782 5783 5785 5788 5791 5794 5798 5802 5805
5846 5847 5848 5849 5850 5849 5849 5848 5848 5847 5846 5845 5844 5843 5842 5840 5839 5838 5836 5834 5832 5830 5827 5824 5820 5816 5813 5809 5805 5801 5797 5793 5789 5785 5782 5780 5779 5778 5778 5778 5778 5780 5782 5784 5787 5790 5793 5797 5800
5844 5845 5846 5847 5847 5847 5847 5846 5845 5845 5844 5843 5842 5841 5841 5839 5838 5837 5836 5834 5832 5830 5827 5824 5821 5817 5813 5810 5806 5802 5798 5794 5790 5786 5783 5780 5778 5777 5776 5776 5776 5777 5778 5781 5783 5786 5789 5792 5795
5842 5843 5844 5845 5845 5845 5844 5844 5843 5842 5842 5841 5840 5840 5840 5839 5838 5837 5835 5834 5832 5830 5827 5824 5821 5818 5814 5811 5807 5803 5799 5795 5791 5787 5784 5781 5778 5776 5775 5775 5774 5775 5776 5778 5780 5782 5784 5787 5791
5840 5841 5842 5842 5842 5842 5842 5842 5840 5840 5840 5839 5839 5839 5838 5838 5837 5836 5835 5834 5832 5830 5827 5825 5822 5819 5815 5812 5808 5804 5801 5797 5793 5789 5785 5782 5779 5777 5775 5774 5774 5773 5774 5775 5777 5778 5780 5783 5786
5837 5838 5839 5839 5840 5839 5840 5839 5838 5838 5838 5837 5837 5838 5837 5837 5836 5836 5835 5833 5832 5830 5827 5825 5822 5819 5816 5813 5809 5806 5802 5798 5794 5791 5787 5784 5780 5778 5776 5774 5773 5773 5773 5773 5774 5775 5777 5779 5782
5834 5836 5837 5837 5837 5837 5836 5836 5836 5835 5835 5836 5836 5836 5836 5836 5836 5835 5834 5833 5831 5830 5828 5825 5823 5820 5817 5814 5810 5807 5803 5800 5796 5792 5789 5785 5782 5779 5777 5775 5774 5773 5772 5772 5772 5773 5774 5776 5778
5832 5834 5834 5834 5834 5835 5834 5834 5834 5833 5834 5834 5835 5835 5835 5835 5835 5834 5834 5832 5831 5829 5827 5825 5823 5820 5817 5814 5811 5808 5805 5801 5798 5794 5791 5787 5784 5781 5778 5776 5774 5773 5772 5771 5771 5771 5772 5773 5775
5830 5831 5832 5832 5832 5832 5832 5831 5833 5832 5832 5832 5833 5834 5834 5834 5834 5833 5833 5832 5830 5829 5827 5825 5823 5820 5818 5815 5812 5809 5805 5802 5799 5795 5792 5789 5786 5783 5780 5777 5775 5773 5772 5771 5770 5770 5770 5770 5771
5828 5829 5830 5830 5830 5830 5829 5829 5831 5830 5830 5830 5831 5832 5833 5833 5833 5832 5832 5831 5830 5828 5827 5825 5823 5820 5818 5815 5812 5809 5806 5803 5800 5797 5793 5790 5787 5784 5781 5779 5776 5774 5773 5771 5770 5769 5768 5768 5768
5826 5826 5827 5827 5827 5827 5827 5828 5828 5828 5828 5829 5830 5830 5831 5831 5831 5831 5831 5830 5829 5828 5826 5824 5822 5820 5817 5815 5812 5809 5806 5803 5801 5798 5795 5792 5788 5786 5783 5780 5778 5775 5773 5771 5769 5768 5767 5766 5766
5824 5824 5824 5824 5824 5824 5825 5825 5826 5826 5826 5827 5828 5828 5829 5830 5830 5830 5829 5829 5828 5827 5825 5824 5822 5819 5817 5814 5812 5809 5806 5804 5801 5798 5795 5792 5789 5787 5784 5781 5779 5776 5774 5772 5770 5768 5766 5764 5764
5822 5822 5821 5821 5822 5822 5822 5825 5823 5824 5824 5825 5826 5826 5827 5828 5828 5828 5828 5828 5827 5826 5824 5823 5821 5819 5816 5814 5812 5809 5806 5804 5801 5798 5795 5793 5790 5787 5784 5782 5779 5777 5774 5772 5770 5767 5765 5763 5762
5818 5819 5819 5819 5819 5819 5819 5824 5821 5821 5821 5822 5823 5824 5825 5826 5826 5826 5826 5826 5826 5825 5823 5822 5820 5818 5816 5813 5811 5809 5806 5803 5801 5798 5795 5793 5790 5787 5785 5782 5779 5777 5774 5772 5769 5767 5765 5762 5760
Wind_Speed
6 7 7 7 6 3 2 1 3 4 5 6 7 8 9 10 11 12 13 13 13 14 14 15 15 15 16 16 17 17 17 17 17 17 16 16 15 14 13 12 12 12 11 11 11 12 12 11 12
7 8 8 8 5 5 4 3 4 4 5 7 9 10 11 13 14 15 15 15 16 16 16 17 18 18 19 19 19 19 20 20 19 19 19 18 18 17 16 15 14 14 13 12 12 12 12 12 11
8 9 10 8 5 5 5 5 6 6 6 9 11 12 14 15 16 17 17 18 19 20 20 20 21 21 22 22 22 22 23 22 21 21 21 21 21 20 19 18 17 16 15 14 13 12 12 12 11
10 11 10 8 7 7 7 7 7 7 8 10 12 14 15 17 18 18 19 20 21 21 22 23 23 24 24 24 24 25 25 25 25 24 23 23 23 22 22 20 19 18 17 16 15 14 13 12 12
11 12 11 9 9 8 8 8 9 9 11 13 15 16 17 18 19 20 20 21 22 23 24 25 25 26 26 27 27 28 28 28 28 27 26 26 25 25 24 24 22 21 20 18 17 16 14 13 13
13 13 12 11 11 10 9 11 12 13 15 16 17 18 19 19 20 21 22 23 23 24 24 25 25 25 26 27 27 28 29 29 30 30 29 28 28 27 26 26 25 24 22 21 20 18 16 15 14
14 14 13 13 13 12 12 12 14 15 16 16 17 19 19 20 20 21 22 22 23 23 24 25 25 25 25 26 26 26 27 28 29 30 31 30 30 29 28 28 27 27 25 23 23 21 19 18 16
15 15 15 15 14 14 13 15 16 17 16 17 18 19 19 20 20 21 21 21 21 22 23 23 23 23 23 23 24 24 25 27 27 29 31 31 31 31 29 29 29 29 27 26 24 23 22 20 18
17 16 16 15 15 15 15 16 17 16 17 17 18 18 18 19 19 19 19 19 19 20 20 20 20 21 21 21 22 23 24 25 25 26 27 29 31 31 31 30 30 30 28 27 27 25 24 22 20
17 18 17 16 15 15 16 16 17 16 17 17 17 17 18 18 18 18 17 18 18 18 18 18 18 19 19 19 20 21 22 23 23 23 25 27 28 30 32 32 31 29 29 28 26 26 25 23 21
19 19 17 16 15 16 17 17 17 16 17 16 16 16 17 16 16 16 15 15 16 16 17 18 18 18 18 19 19 19 20 20 21 22 22 24 26 28 30 31 32 30 29 28 27 25 27 24 23
20 20 17 16 16 15 15 16 15 14 15 15 15 15 15 14 14 14 14 14 15 16 17 17 17 17 18 18 18 19 19 19 19 20 21 22 23 25 27 28 30 30 29 29 28 27 26 25 23
19 18 16 15 15 14 14 14 13 13 13 14 14 13 12 12 12 12 13 13 14 15 16 17 17 17 17 17 18 18 18 17 17 17 18 19 20 21 23 25 27 28 28 29 28 27 26 27 24
19 18 16 15 15 14 13 13 13 13 13 13 12 11 11 10 10 10 11 12 13 14 15 16 16 17 17 17 17 17 17 16 16 15 15 16 17 18 20 22 24 26 28 28 27 27 26 26 26
19 17 15 13 13 13 13 12 13 13 12 12 12 10 9 8 8 9 9 11 12 14 15 15 16 17 17 17 17 18 17 16 15 14 14 13 14 15 17 19 22 24 27 27 27 27 26 26 26
18 15 14 13 13 13 13 12 12 12 12 11 10 9 8 7 6 7 8 10 12 13 14 15 16 17 18 18 18 18 18 17 15 14 13 12 12 13 14 16 18 21 24 25 25 26 26 26 25
16 15 14 12 11 11 12 12 13 12 11 10 9 8 6 4 4 6 8 10 11 13 14 16 16 17 18 19 19 19 19 18 16 14 12 10 10 10 10 12 15 17 19 22 24 25 26 26 26
15 15 12 10 10 11 11 12 13 12 11 9 8 6 4 2 3 5 7 9 11 12 14 16 17 18 19 19 19 19 19 18 17 15 13 10 9 8 9 9 11 14 16 18 21 22 24 25 26
16 14 11 10 11 11 12 13 13 12 11 9 7 5 3 0 3 5 6 8 10 12 14 15 17 18 19 19 19 19 19 19 18 17 15 12 9 8 7 8 8 10 13 16 18 20 23 25 25
14 12 11 12 12 12 13 13 13 12 10 8 7 5 3 2 3 4 6 7 9 11 13 15 16 18 18 19 19 19 19 19 19 19 17 14 12 9 7 6 6 7 10 13 16 18 20 22 24
13 12 12 13 13 13 13 12 12 11 9 8 7 6 5 3 2 3 5 7 9 11 12 14 16 17 18 19 19 19 19 19 19 19 18 16 14 12 9 7 5 5 7 10 13 16 17 19 21
13 13 14 14 13 13 13 12 12 10 9 8 7 7 6 4 2 2 4 6 8 10 12 13 15 17 18 18 19 19 19 19 19 19 19 17 15 13 11 9 7 5 4 6 9 11 14 17 20
15 14 14 14 14 12 12 12 11 9 8 8 8 7 6 5 3 2 3 5 7 9 11 13 14 16 17 18 19 19 19 19 19 19 19 18 17 15 13 11 9 7 5 4 5 8 11 14 17
15 15 15 15 14 12 12 11 10 9 8 8 9 8 7 5 3 1 2 4 7 8 10 12 14 15 16 17 18 18 19 19 19 19 19 18 18 17 15 13 11 9 7 5 5 6 8 11 14
14 15 16 15 14 12 12 11 9 9 9 9 9 8 7 6 4 1 1 4 6 8 10 12 13 15 16 16 17 18 18 18 18 18 18 18 18 17 16 15 13 11 9 7 6 6 7 9 11
14 15 15 16 15 13 12 11 9 10 10 9 9 9 8 6 4 2 1 3 6 8 10 12 13 14 15 16 16 17 17 17 18 18 18 18 17 17 16 15 14 12 11 10 8 7 5 6 8
15 15 16 16 15 14 12 10 10 11 11 11 10 9 8 7 5 3 0 3 5 7 10 11 13 14 15 15 16 16 16 17 16 17 17 17 17 17 16 15 14 13 12 11 10 9 7 5 5
15 15 15 16 15 14 12 11 11 12 12 12 11 10 9 7 5 3 1 2 5 7 9 11 13 14 15 15 15 15 15 16 16 16 16 16 16 16 16 15 15 14 13 13 12 11 9 7 6
15 15 15 16 15 14 12 10 12 12 12 12 12 11 9 8 6 4 2 2 4 7 9 11 12 13 14 14 15 15 15 15 15 15 15 15 16 15 15 15 15 15 14 13 13 13 12 10 8
16 16 16 16 15 14 13 9 12 12 12 13 12 11 10 8 7 5 3 3 4 7 9 10 12 13 14 14 14 15 15 15 15 15 15 15 15 15 15 15 14 14 14 14 14 13 13 12 10
Wind_Direction
291 294 296 301 309 321 352 1 352 345 332 331 331 329 326 324 321 316 315 313 309 306 303 300 297 293 290 290 290 289 288 287 284 280 276 273 269 266 264 262 260 259 259 261 262 261 261 263 263
285 288 290 300 312 335 346 323 314 318 323 324 322 320 319 318 316 313 311 309 305 302 298 296 292 288 286 284 283 284 283 283 281 277 274 271 268 266 264 262 260 259 259 260 261 262 262 262 263
278 280 287 293 304 324 325 314 301 306 312 314 314 315 315 314 313 310 307 303 300 296 293 290 288 285 283 280 280 280 279 278 277 274 272 270 267 264 263 261 259 258 257 258 259 261 263 262 262
272 278 282 292 303 309 304 310 309 309 308 309 311 312 313 312 310 307 304 301 299 295 291 288 286 283 280 277 275 275 275 273 272 270 269 268 266 263 261 259 258 258 255 255 257 259 259 261 262
267 273 280 290 298 300 302 303 304 305 308 311 312 313 312 311 308 306 303 301 297 294 293 291 288 284 281 278 276 273 272 271 270 268 266 264 264 263 261 257 256 256 255 252 252 255 255 257 259
262 266 276 285 291 293 296 301 303 301 306 311 313 312 312 311 309 307 304 302 299 296 295 294 291 289 285 282 278 274 272 270 268 266 264 262 261 260 259 256 255 254 253 250 249 250 251 253 254
254 262 273 278 286 291 293 295 298 299 302 307 310 311 312 310 309 307 306 304 302 301 300 299 297 293 290 286 281 278 275 271 267 264 262 261 260 259 258 255 254 252 251 251 249 247 250 251 250
252 261 270 275 281 290 294 294 296 297 300 307 310 311 312 310 309 310 309 309 308 307 307 306 304 301 297 292 287 282 278 275 270 265 263 260 259 257 257 255 253 250 249 248 248 247 247 247 246
250 259 269 276 283 293 296 297 298 296 300 306 310 312 313 311 313 314 314 313 313 314 313 312 310 307 303 299 294 289 285 282 277 270 266 261 258 255 254 253 252 249 248 248 246 244 246 244 243
250 257 266 275 284 292 297 300 299 298 303 306 309 311 312 313 316 317 317 318 320 322 323 323 321 318 314 309 304 298 293 288 284 278 271 265 259 255 252 251 250 249 249 247 246 242 243 242 240
248 257 267 277 285 293 296 297 296 298 304 308 309 312 314 315 318 319 321 324 328 330 331 330 328 324 320 317 313 308 301 293 286 281 274 268 262 258 252 250 248 247 248 249 246 243 241 241 239
246 254 265 279 284 292 296 295 298 303 306 309 311 312 313 317 321 326 330 333 335 337 338 338 336 333 330 325 319 313 309 301 291 283 276 271 266 259 252 250 246 244 244 246 245 241 238 238 236
244 251 264 276 284 291 296 296 297 306 309 311 313 313 314 320 326 332 336 339 342 345 346 345 344 342 339 335 330 323 319 315 305 291 282 275 269 262 254 249 246 241 241 242 240 240 239 236 231
245 254 263 274 279 287 291 294 296 305 308 309 311 312 315 323 332 339 344 348 353 355 355 354 352 349 347 344 340 335 330 324 315 304 291 281 273 266 259 251 245 240 239 239 238 237 238 237 233
244 252 262 274 281 287 287 290 299 303 302 303 303 306 312 325 340 349 355 2 6 6 5 3 1 360 358 355 352 347 342 335 326 315 302 289 280 272 262 254 248 244 240 238 237 237 236 235 234
241 250 259 270 277 282 290 295 297 299 298 297 297 301 310 329 351 5 12 15 15 13 11 11 10 8 6 4 0 357 354 349 341 329 315 301 290 279 267 258 252 248 243 238 235 235 235 234 232
238 247 256 265 275 281 287 291 290 290 289 287 288 295 307 335 11 23 25 23 21 19 18 17 15 13 11 9 5 3 2 359 354 346 332 317 305 291 276 263 256 250 245 239 236 234 234 234 232
241 251 258 270 277 281 282 281 280 282 280 276 276 283 296 348 41 38 33 28 26 24 22 20 19 17 15 12 9 8 7 5 3 0 353 338 322 305 288 274 260 251 246 241 238 237 236 234 233
245 255 262 267 273 276 278 276 276 276 271 262 261 264 262 126 70 48 38 31 28 26 24 22 21 20 18 16 15 14 13 12 11 10 6 0 348 331 307 288 269 254 245 242 240 240 237 235 234
248 256 260 265 269 272 274 275 274 270 258 247 245 241 223 164 95 57 41 32 28 25 24 22 21 20 19 18 17 16 16 16 16 16 15 12 7 359 347 323 291 263 248 242 240 242 239 237 234
244 250 256 263 267 269 271 270 266 258 244 233 228 226 209 173 112 67 44 33 27 24 22 21 20 19 18 18 18 17 17 18 17 17 18 17 16 14 7 356 334 292 260 248 244 242 242 237 235
237 245 253 261 266 269 271 264 258 249 234 224 219 218 204 181 138 79 47 33 26 24 22 21 19 19 18 17 17 17 17 17 18 19 19 19 19 17 14 8 0 343 296 263 253 246 242 239 236
236 244 253 261 266 271 271 265 257 246 232 221 217 213 203 188 163 102 47 31 27 24 21 19 18 17 16 16 17 17 17 18 18 19 20 21 21 21 19 16 10 359 342 303 269 254 245 241 239
235 244 253 259 266 270 268 266 256 246 234 221 216 213 205 194 177 133 43 28 25 21 18 16 14 14 14 14 15 15 16 16 18 19 20 21 22 22 22 21 18 11 360 340 306 275 255 245 242
238 248 254 260 267 270 265 263 254 247 238 225 218 214 208 199 191 181 35 25 21 17 14 12 10 10 10 11 12 12 13 14 16 17 19 20 22 22 22 22 21 19 14 3 342 311 281 260 250
241 251 258 264 267 266 261 260 250 246 241 229 221 216 212 206 204 205 43 24 17 13 11 8 7 6 6 8 9 9 10 12 14 15 17 18 20 21 22 22 22 21 18 13 5 350 320 286 264
247 254 260 266 268 267 263 259 247 242 238 232 223 216 214 211 211 211 234 14 10 8 6 5 5 5 5 5 7 7 8 10 11 13 14 16 18 19 20 21 21 21 19 16 11 4 351 326 291
253 258 261 267 271 268 263 256 242 236 236 231 223 219 217 215 215 215 237 352 0 1 1 1 1 2 3 4 5 6 6 7 8 9 10 12 14 16 17 19 20 19 18 16 14 11 4 353 332
256 261 264 268 271 270 262 251 239 235 233 228 224 222 220 219 221 222 247 322 346 352 355 357 359 360 1 2 3 4 5 6 6 6 6 8 9 12 13 14 15 15 15 14 12 11 9 1 350
259 262 265 267 269 267 262 245 240 237 231 228 226 224 224 224 225 231 252 298 331 343 349 353 355 358 360 1 2 2 3 3 4 4 4 5 6 7 9 9 8 9 10 10 9 8 6 2 357